Satellite: CO-58
Catalog number: 28895
Epoch time:      09308.71575238
Element set:     434
Inclination:      098.0391 deg
RA of node:       195.2387 deg
Eccentricity:    0.0016939
Arg of perigee:   268.6380 deg
Mean anomaly:     091.2903 deg
Mean motion:   14.59810807 rev/day
Decay rate:       1.79e-06 rev/day^2
Epoch rev:           21423
Checksum:              346

Satellite: FALCON
Catalog number: 30776
Epoch time:      09308.43292723
Element set:    0705
Inclination:      035.4346 deg
RA of node:       328.4563 deg
Eccentricity:    0.0001346
Arg of perigee:   021.9220 deg
Mean anomaly:     338.1554 deg
Mean motion:   15.03356710 rev/day
Decay rate:       6.30e-06 rev/day^2
Epoch rev:           14621
Checksum:              265

Satellite: MAST
Catalog number: 31126
Epoch time:      09308.60508827
Element set:     723
Inclination:      097.9709 deg
RA of node:       356.8499 deg
Eccentricity:    0.0094242
Arg of perigee:   203.4724 deg
Mean anomaly:     156.2146 deg
Mean motion:   14.53527321 rev/day
Decay rate:        6.3e-07 rev/day^2
Epoch rev:           13543
Checksum:              302

Satellite: CAPE1
Catalog number: 31130
Epoch time:      09308.64439262
Element set:     734
Inclination:      097.9731 deg
RA of node:       354.7623 deg
Eccentricity:    0.0101976
Arg of perigee:   209.9122 deg
Mean anomaly:     149.6221 deg
Mean motion:   14.52100354 rev/day
Decay rate:       1.36e-06 rev/day^2
Epoch rev:           13507
Checksum:              279

Satellite: COMPASS
Catalog number: 32787
Epoch time:      09308.23415640
Element set:    0510
Inclination:      097.9272 deg
RA of node:       010.7559 deg
Eccentricity:    0.0014947
Arg of perigee:   299.9351 deg
Mean anomaly:     060.0376 deg
Mean motion:   14.81685112 rev/day
Decay rate:       2.93e-06 rev/day^2
Epoch rev:           08218
Checksum:              305

Satellite: AAUSAT2
Catalog number: 32788
Epoch time:      09308.86551939
Element set:     503
Inclination:      097.9282 deg
RA of node:       011.4655 deg
Eccentricity:    0.0014452
Arg of perigee:   300.6704 deg
Mean anomaly:     059.3068 deg
Mean motion:   14.81811375 rev/day
Decay rate:        5.6e-07 rev/day^2
Epoch rev:            8228
Checksum:              310

Satellite: DO-64
Catalog number: 32789
Epoch time:      09308.75159620
Element set:     518
Inclination:      097.9322 deg
RA of node:       011.6099 deg
Eccentricity:    0.0014747
Arg of perigee:   297.0540 deg
Mean anomaly:     062.9167 deg
Mean motion:   14.81841415 rev/day
Decay rate:       7.15e-06 rev/day^2
Epoch rev:            8226
Checksum:              325

Satellite: CO-66
Catalog number: 32791
Epoch time:      09309.71194278
Element set:     499
Inclination:      097.9287 deg
RA of node:       012.2488 deg
Eccentricity:    0.0015308
Arg of perigee:   292.8585 deg
Mean anomaly:     067.0998 deg
Mean motion:   14.81503026 rev/day
Decay rate:       1.03e-06 rev/day^2
Epoch rev:            8236
Checksum:              341

Satellite: RS-30
Catalog number: 32953
Epoch time:      09308.72454195
Element set:     445
Inclination:      082.5034 deg
RA of node:       169.2441 deg
Eccentricity:    0.0018104
Arg of perigee:   232.2596 deg
Mean anomaly:     127.6842 deg
Mean motion:   12.43003129 rev/day
Decay rate:        1.0e-07 rev/day^2
Epoch rev:            6585
Checksum:              278

Satellite: TACSAT-3
Catalog number: 35001
Epoch time:      09308.88379814
Element set:    0145
Inclination:      040.4553 deg
RA of node:       118.9512 deg
Eccentricity:    0.0022195
Arg of perigee:   128.8611 deg
Mean anomaly:     231.4188 deg
Mean motion:   15.39478096 rev/day
Decay rate:      2.928e-05 rev/day^2
Epoch rev:           02603
Checksum:              304

Satellite: PHARMSAT
Catalog number: 35002
Epoch time:      09308.86539278
Element set:     131
Inclination:      040.4681 deg
RA of node:       118.0871 deg
Eccentricity:    0.0025130
Arg of perigee:   133.5161 deg
Mean anomaly:     226.7750 deg
Mean motion:   15.40210181 rev/day
Decay rate:      3.012e-05 rev/day^2
Epoch rev:            2603
Checksum:              240

Satellite: HAWKSAT1
Catalog number: 35003
Epoch time:      09309.83370206
Element set:     139
Inclination:      040.4609 deg
RA of node:       111.2049 deg
Eccentricity:    0.0024936
Arg of perigee:   146.5926 deg
Mean anomaly:     213.6468 deg
Mean motion:   15.41205902 rev/day
Decay rate:      5.719e-05 rev/day^2
Epoch rev:            2620
Checksum:              272

Satellite: CP6
Catalog number: 35004
Epoch time:      09308.85769066
Element set:    0134
Inclination:      040.4619 deg
RA of node:       117.0158 deg
Eccentricity:    0.0024436
Arg of perigee:   138.5077 deg
Mean anomaly:     221.7592 deg
Mean motion:   15.41332583 rev/day
Decay rate:      6.779e-05 rev/day^2
Epoch rev:           02604
Checksum:              302

Satellite: AEROCUB3
Catalog number: 35005
Epoch time:      09308.87925500
Element set:    0142
Inclination:      040.4744 deg
RA of node:       117.3734 deg
Eccentricity:    0.0024090
Arg of perigee:   135.0336 deg
Mean anomaly:     225.2440 deg
Mean motion:   15.41090888 rev/day
Decay rate:      6.197e-05 rev/day^2
Epoch rev:           02604
Checksum:              270

